Temperature
28 28 28 28 28 27 27 27 27 27 27 27 26 25 25 24 24 24 23 23 22 22 22 21 21 20 20 20 20 20 20 20 19 19 19 18 18 17 17 17 16 16 16 15
26 27 27 27 27 27 27 27 27 27 27 26 24 24 23 23 23 23 22 22 22 21 21 21 20 20 20 20 20 20 20 20 19 19 19 19 18 18 17 17 17 16 16 16
26 27 26 26 27 27 27 27 27 26 26 25 24 22 21 21 21 21 21 20 20 20 20 20 20 20 20 19 19 19 19 19 19 19 19 19 18 18 17 17 17 17 16 16
26 25 24 27 27 27 26 26 26 25 25 24 22 20 19 19 19 19 19 19 19 19 19 19 19 19 19 19 18 18 18 18 18 19 18 18 18 17 17 17 17 16 16 16
25 25 25 26 26 26 25 25 25 24 24 22 21 21 19 17 17 17 17 17 17 18 18 18 18 18 18 18 17 17 17 17 17 17 17 17 17 17 17 17 16 16 16 16
24 24 24 25 25 24 25 24 24 24 23 22 22 23 20 17 16 16 16 16 16 16 17 17 17 17 17 17 17 16 16 16 16 16 16 16 16 16 16 16 16 16 15 15
24 24 25 25 24 24 24 23 23 22 22 22 21 20 17 16 15 15 15 15 15 16 16 16 16 16 16 16 16 15 15 15 15 15 15 15 15 15 15 15 15 15 14 14
24 23 24 24 24 24 23 21 21 21 20 19 18 16 16 15 14 14 14 14 15 15 15 15 15 15 15 15 14 14 15 15 15 15 14 14 15 15 14 14 14 13 13 13
24 24 22 22 22 21 21 21 20 20 19 17 17 16 15 14 14 14 14 14 14 14 14 14 14 14 14 13 13 13 13 13 13 13 13 13 13 13 13 13 13 13 13 13
23 23 22 21 20 20 20 20 19 18 17 17 16 15 15 14 14 13 13 13 13 13 13 12 13 13 12 12 12 12 12 12 12 12 12 12 12 12 12 12 12 12 12 12
22 23 22 21 20 19 19 18 18 17 17 16 16 15 14 14 13 13 13 13 12 12 12 11 11 11 11 11 11 11 11 11 11 12 11 11 11 11 11 11 10 10 10 10
22 21 21 20 18 18 17 17 17 16 16 15 15 14 14 13 13 13 12 12 12 12 11 11 11 11 11 11 11 11 11 11 11 11 11 11 11 11 11 10 10 10 10 10
18 18 18 17 17 17 16 16 15 15 15 14 14 14 13 13 13 12 12 12 11 11 11 11 11 10 10 10 10 10 10 10 11 11 11 10 10 10 10 10 10 9 9 9
16 16 17 16 16 16 15 15 14 14 13 13 13 13 12 12 12 12 12 11 11 11 11 11 10 10 10 10 10 10 10 10 10 10 10 10 10 10 10 10 9 9 9 8
15 16 15 14 14 14 14 14 13 13 13 12 12 12 12 12 12 11 11 11 11 11 11 10 10 10 10 10 9 9 9 9 9 9 9 9 9 9 9 9 9 9 8 8
14 14 14 13 13 13 13 13 12 12 12 12 11 11 11 11 11 11 11 11 11 11 10 10 10 9 9 9 9 9 9 9 8 8 9 9 9 9 8 8 8 8 7 7
14 14 13 13 12 12 12 12 11 11 11 11 11 11 11 11 11 11 11 11 10 10 10 10 9 9 9 8 8 9 9 9 8 8 8 8 7 7 7 7 6 6 6 6
13 12 12 12 12 11 11 11 11 11 11 11 11 11 11 11 11 11 11 10 10 10 10 9 9 8 8 8 8 8 8 8 7 7 7 7 6 6 6 5 5 5 5 5
12 12 11 11 11 11 11 11 11 11 11 11 11 11 11 11 11 10 10 10 10 10 9 9 9 8 7 7 7 7 7 7 6 6 6 5 5 5 4 4 4 4 4 4
11 11 11 11 11 11 11 11 11 11 10 10 11 11 10 10 10 10 10 10 10 9 8 8 7 7 7 6 6 6 6 5 5 5 4 4 4 3 3 3 3 2 2 2
11 11 11 11 11 11 11 11 11 11 11 10 10 10 10 10 10 10 10 10 9 8 8 7 7 6 6 6 5 5 5 4 4 3 3 3 2 2 2 2 2 2 2 2
11 11 11 11 11 11 11 11 11 11 10 10 10 10 10 10 10 9 9 8 8 8 7 6 6 6 6 5 4 4 3 3 2 2 2 1 1 1 1 1 1 1 1 1
11 11 11 11 11 11 10 10 10 10 10 10 10 9 9 9 9 9 8 7 7 7 6 6 6 5 5 4 3 3 2 2 2 1 1 1 0 0 0 0 0 0 1 1
10 10 10 10 10 10 10 10 10 10 9 9 9 9 9 9 9 8 7 7 6 6 5 5 5 4 3 2 2 2 1 1 1 1 0 0 0 -0 -0 -0 -0 -0 -0 -0
10 10 10 10 10 10 10 10 9 9 9 9 9 8 8 8 7 7 6 6 5 5 4 4 3 3 2 2 1 1 1 0 0 -0 -0 -0 -0 -0 -0 -0 -0 -0 -0 -0
9 10 9 9 9 9 10 9 9 9 9 9 8 8 7 7 6 6 5 5 4 4 3 3 2 2 1 1 1 0 0 -0 -0 -0 -1 -1 -1 -1 -1 -1 -1 -1 -1 -1
9 9 9 9 9 9 9 9 8 8 8 8 7 7 7 6 6 5 5 4 4 3 2 2 1 1 1 0 0 -0 -0 -0 -1 -1 -1 -1 -1 -1 -1 -1 -1 -1 -1 -1
Wind_Speed
10 7 7 8 9 9 12 12 12 11 10 6 5 4 2 1 4 5 7 9 11 12 12 13 13 14 14 14 14 14 15 15 14 13 13 12 12 12 12 12 13 12 12 12
10 8 8 10 10 11 12 12 12 13 10 3 3 3 3 2 2 3 3 4 6 8 9 10 11 12 13 13 13 13 14 14 12 12 12 13 12 12 12 12 12 12 13 13
10 6 8 11 9 9 10 9 10 10 4 2 2 4 5 4 4 3 2 1 1 2 4 5 7 8 9 10 10 11 11 11 11 11 12 12 12 12 13 13 13 13 13 14
8 6 10 3 2 3 6 6 5 3 1 1 4 6 6 7 6 6 6 5 4 3 2 1 3 4 4 6 7 7 8 9 9 9 10 10 11 12 12 11 12 12 13 14
8 10 9 4 2 2 4 4 1 2 2 5 8 8 8 9 8 8 8 8 7 7 6 5 4 4 5 5 4 4 5 5 6 7 7 8 10 10 10 10 11 12 12 13
7 7 7 1 4 0 4 4 2 2 4 6 8 4 5 7 8 10 10 10 10 9 10 10 8 7 6 6 5 2 1 1 2 3 4 5 6 7 7 8 10 11 12 12
9 8 5 4 3 2 4 1 3 3 4 5 3 5 8 8 9 10 11 11 11 11 11 10 9 9 10 9 7 5 4 3 2 1 2 3 3 4 5 7 8 10 11 11
6 6 2 5 2 2 3 3 3 4 6 8 12 13 11 11 10 10 11 11 11 11 11 10 9 10 11 10 7 6 6 6 5 3 2 1 0 2 3 5 6 8 9 10
3 1 4 2 1 2 1 3 4 6 9 13 14 13 13 12 11 11 11 11 10 11 12 11 11 11 11 8 6 6 7 7 6 4 3 3 2 2 2 3 5 6 7 8
2 1 1 1 1 1 2 4 7 9 12 14 14 14 13 11 11 10 11 10 10 11 11 11 11 11 9 8 7 7 8 7 5 4 4 4 4 3 4 4 5 6 7 8
4 2 1 1 2 2 5 8 11 13 13 13 14 13 12 11 10 10 9 9 9 9 10 10 9 9 9 9 8 8 7 6 5 5 5 4 4 4 5 5 5 6 8 8
4 4 3 2 2 5 8 11 13 14 14 12 12 12 11 10 9 9 9 8 8 9 8 8 8 8 8 8 7 7 6 7 6 6 6 6 6 5 2 5 5 8 9 9
3 4 2 4 6 8 10 13 13 14 14 13 12 10 10 9 8 8 8 8 7 7 7 6 6 7 7 6 6 6 6 7 7 7 7 7 7 8 9 7 8 10 11 10
2 2 5 7 9 11 14 15 15 15 13 12 10 9 9 7 7 6 6 6 5 5 5 5 5 6 5 5 5 6 7 5 6 7 8 8 9 9 10 11 11 10 8 8
5 5 9 12 13 14 14 14 15 13 12 10 8 7 6 5 5 4 4 3 3 3 4 4 5 5 5 5 6 7 7 7 8 9 10 10 10 10 11 12 12 12 12 10
10 13 14 15 15 14 14 13 12 11 9 8 6 4 4 3 2 2 2 2 2 4 4 4 4 5 5 6 7 7 6 3 6 10 10 10 11 11 12 12 12 12 12 12
13 14 15 15 15 14 13 11 10 8 6 5 3 2 1 1 1 1 2 2 2 2 2 3 4 5 6 7 8 8 9 9 8 10 10 10 11 12 12 12 12 12 12 11
14 14 14 13 13 12 11 9 7 6 3 2 1 1 1 1 1 2 2 2 2 1 3 4 5 5 5 7 7 9 9 10 10 10 10 10 11 12 12 12 12 13 13 12
14 14 14 12 11 10 8 6 4 3 1 1 1 1 1 2 2 2 3 3 4 3 3 4 3 5 6 7 9 7 9 10 10 10 10 10 11 11 11 11 12 12 12 12
12 12 11 10 8 7 5 3 2 1 0 1 1 1 2 3 3 4 4 4 4 5 4 5 4 5 6 7 9 9 9 10 10 10 10 10 11 11 11 11 12 12 11 11
9 8 7 6 5 4 3 2 1 1 1 2 2 2 3 3 4 4 5 3 4 5 4 2 3 5 6 8 8 8 9 9 9 9 9 10 10 10 10 10 11 11 11 11
6 5 5 4 4 3 3 2 2 2 2 2 3 3 4 4 4 3 2 3 3 4 4 4 5 7 9 10 7 8 8 9 8 8 9 9 9 9 10 10 10 10 10 11
3 3 3 3 3 3 3 3 3 3 3 3 3 4 5 5 5 5 3 3 4 4 4 6 7 7 11 6 6 7 8 8 8 9 8 8 9 9 9 10 10 10 10 10
2 3 3 3 3 4 4 4 4 3 2 2 2 3 4 4 3 3 4 6 5 4 5 7 5 7 8 5 6 7 7 8 8 8 8 8 8 8 9 9 10 10 10 12
4 4 4 5 5 5 4 4 4 3 4 3 3 3 3 3 3 3 4 4 5 2 4 5 1 6 5 6 6 7 7 7 8 8 8 8 9 9 9 9 10 10 10 11
4 4 4 4 4 5 5 5 5 4 4 3 3 3 3 2 2 2 2 4 5 4 3 3 4 4 6 6 6 7 7 6 7 7 8 8 9 10 9 10 12 11 11 11
4 4 4 4 4 5 5 5 6 5 5 4 4 3 2 2 2 2 3 3 3 3 3 4 4 4 5 6 6 6 6 6 7 7 8 8 8 9 10 11 10 10 10 11
Wind_Direction
264 269 259 255 251 238 241 262 278 288 292 317 354 353 342 224 190 190 193 199 207 211 209 211 211 210 210 210 207 204 202 203 204 204 203 203 202 204 206 209 213 215 219 222
248 246 252 256 255 251 251 260 270 279 284 353 30 34 39 44 128 151 176 196 204 211 213 211 212 212 210 210 205 202 205 206 202 202 202 203 203 204 206 211 216 218 222 226
250 239 254 254 254 254 251 257 270 279 299 49 53 53 47 43 52 67 66 60 149 207 217 211 207 203 203 205 200 199 205 206 200 201 202 204 205 205 208 212 215 220 226 230
255 243 253 278 66 282 269 268 268 278 295 107 101 94 68 51 50 54 56 51 45 49 85 140 166 174 181 182 186 195 201 203 200 201 204 206 208 212 214 216 220 224 228 232
247 245 252 214 160 242 263 265 257 223 158 137 138 130 85 59 58 58 58 60 58 54 65 69 82 106 129 140 153 178 193 201 201 203 209 211 214 217 220 223 228 232 234 236
235 252 253 166 106 114 260 232 126 154 164 165 182 189 98 74 69 68 64 64 63 66 70 67 63 75 92 95 98 105 123 170 200 210 221 227 231 233 232 233 239 244 245 243
236 244 253 89 113 209 252 52 96 142 156 165 150 84 109 98 82 76 71 68 67 66 64 63 66 73 73 68 60 54 60 66 61 22 246 246 253 251 251 250 253 254 256 251
232 243 239 108 163 268 32 86 121 134 134 121 110 109 110 104 95 86 80 74 72 70 65 57 60 71 72 62 53 53 60 64 60 46 11 21 318 273 262 261 259 259 261 264
255 348 70 99 40 54 102 133 134 135 128 126 123 119 114 107 98 90 84 79 76 77 73 64 60 64 69 60 51 58 61 59 50 43 37 19 351 307 281 276 281 280 276 277
263 280 51 136 94 128 147 142 137 132 131 130 124 122 117 110 101 92 85 82 80 77 75 69 64 64 64 62 58 56 57 54 45 34 29 23 348 336 325 314 305 300 295 291
259 290 334 84 86 126 129 131 130 128 128 126 124 122 118 110 103 97 92 87 83 80 78 74 69 64 59 54 51 51 48 40 31 28 22 357 350 338 328 327 332 308 306 304
311 13 335 15 81 129 131 129 128 125 121 119 116 116 114 109 106 103 99 93 87 81 75 70 67 63 58 51 43 34 32 22 10 2 1 343 333 326 271 267 257 249 255 274
321 339 31 89 108 121 126 124 123 121 120 116 112 109 105 105 105 104 101 94 87 81 76 69 64 58 49 41 34 25 12 6 353 348 342 333 329 324 319 296 247 241 241 243
34 106 111 108 112 115 117 117 116 112 109 109 107 104 101 101 102 101 95 89 83 79 71 61 54 48 33 24 12 359 344 352 337 334 330 324 321 317 313 312 311 306 278 244
67 97 111 110 108 108 110 111 109 107 105 103 100 100 101 101 100 94 92 86 80 72 59 45 38 34 17 3 354 344 337 340 342 329 319 318 316 312 311 311 308 308 309 302
96 102 107 106 105 105 106 104 103 103 103 102 98 93 84 82 92 98 88 64 42 42 38 26 21 14 3 352 340 327 323 337 319 317 315 317 317 316 314 312 310 310 310 314
106 104 104 103 102 101 99 98 99 96 92 90 92 98 104 128 122 71 43 32 21 20 20 12 7 0 353 347 336 330 328 327 313 310 320 323 321 318 316 313 312 313 311 318
99 99 101 104 104 102 99 95 91 86 74 47 15 1 356 324 336 9 358 340 329 351 17 10 3 347 350 351 338 329 326 326 327 325 324 325 323 317 316 316 316 314 313 313
99 99 98 98 99 97 92 86 84 80 67 5 292 272 279 308 329 337 334 324 319 330 9 12 354 328 344 355 337 319 327 328 328 329 327 328 321 325 326 323 321 320 318 317
99 101 104 107 108 109 112 116 122 120 74 314 291 298 316 329 332 326 321 320 3 5 2 355 335 342 343 353 333 327 332 332 334 335 333 332 333 331 329 327 325 324 321 319
102 102 101 96 92 87 82 76 54 34 2 332 317 313 320 326 326 323 314 330 44 15 350 310 343 357 352 339 311 332 342 344 342 339 337 336 334 333 332 331 329 326 324 324
80 76 68 63 57 47 31 3 348 343 350 345 335 327 319 317 329 338 3 5 24 8 337 2 21 21 348 321 341 354 356 353 348 344 344 343 340 338 335 334 331 331 330 330
65 50 32 17 2 347 332 325 326 332 338 343 343 342 340 339 336 332 349 30 22 13 12 39 33 2 323 334 5 3 2 357 352 349 350 347 342 339 338 336 335 335 334 335
1 350 343 334 322 313 312 317 321 319 311 309 334 348 332 326 337 10 46 80 54 27 52 67 29 338 315 8 12 10 8 3 358 355 353 349 347 345 343 341 341 341 339 339
339 332 331 324 308 310 310 298 289 284 288 309 329 342 338 352 358 33 59 73 83 50 69 94 70 321 355 24 19 16 15 14 3 355 356 355 353 351 349 347 345 341 340 339
329 322 338 328 328 316 310 311 311 317 314 314 326 341 353 24 60 78 79 78 80 72 51 52 42 15 28 29 25 18 15 13 6 4 3 358 355 353 350 348 346 344 341 341
296 295 287 294 305 315 316 315 314 316 320 326 326 331 343 10 47 72 80 80 81 72 61 53 44 36 33 29 27 22 19 15 11 6 2 358 355 350 349 347 346 345 345 348
Height
1472 1470 1471 1473 1473 1475 1479 1478 1479 1476 1473 1473 1476 1480 1482 1484 1485 1487 1489 1491 1493 1496 1498 1501 1503 1506 1508 1511 1514 1516 1518 1520 1523 1525 1528 1530 1532 1534 1535 1537 1538 1540 1541 1542
1476 1470 1470 1473 1471 1471 1473 1473 1473 1473 1473 1474 1480 1482 1484 1484 1485 1486 1488 1489 1491 1493 1495 1497 1499 1501 1504 1506 1508 1510 1513 1515 1518 1521 1523 1525 1527 1529 1531 1532 1534 1535 1536 1537
1475 1469 1473 1477 1468 1468 1469 1469 1472 1473 1473 1477 1480 1484 1486 1486 1486 1487 1488 1488 1489 1490 1492 1493 1495 1497 1499 1501 1504 1506 1508 1511 1513 1516 1518 1520 1522 1524 1526 1527 1529 1530 1531 1532
1473 1478 1490 1469 1465 1466 1468 1468 1470 1472 1475 1479 1483 1487 1488 1489 1489 1488 1488 1488 1489 1489 1490 1491 1493 1494 1496 1498 1501 1503 1505 1507 1509 1511 1514 1516 1518 1519 1521 1522 1523 1524 1525 1525
1474 1477 1474 1466 1467 1468 1470 1471 1471 1474 1477 1481 1484 1485 1489 1491 1491 1490 1490 1489 1489 1489 1490 1490 1491 1493 1495 1497 1498 1500 1502 1504 1506 1508 1510 1511 1513 1514 1515 1517 1517 1518 1519 1519
1474 1482 1482 1469 1467 1470 1471 1474 1473 1475 1477 1480 1482 1480 1489 1493 1492 1492 1491 1490 1490 1491 1490 1490 1491 1493 1494 1496 1497 1499 1500 1501 1503 1504 1506 1507 1508 1509 1510 1511 1511 1512 1513 1512
1473 1477 1468 1465 1469 1471 1477 1477 1475 1477 1478 1480 1482 1485 1492 1493 1494 1493 1493 1492 1492 1492 1491 1492 1493 1494 1494 1495 1496 1497 1498 1498 1499 1501 1502 1502 1503 1504 1505 1505 1505 1505 1506 1505
1472 1477 1475 1469 1470 1471 1475 1476 1477 1479 1481 1483 1486 1490 1492 1494 1495 1495 1495 1495 1495 1494 1494 1494 1494 1495 1494 1495 1496 1497 1496 1497 1497 1498 1499 1498 1498 1499 1499 1499 1499 1499 1499 1498
1465 1469 1471 1471 1472 1475 1476 1477 1479 1481 1483 1485 1488 1492 1494 1496 1497 1498 1498 1497 1498 1497 1496 1496 1496 1495 1495 1497 1498 1498 1497 1496 1496 1497 1497 1496 1496 1496 1496 1495 1495 1495 1494 1493
1467 1466 1471 1473 1475 1476 1477 1478 1480 1482 1485 1488 1490 1493 1496 1498 1499 1500 1500 1500 1500 1500 1500 1499 1498 1498 1498 1498 1498 1498 1496 1496 1496 1496 1496 1494 1494 1494 1493 1492 1491 1490 1489 1488
1468 1469 1472 1473 1475 1477 1478 1479 1481 1484 1487 1490 1492 1495 1498 1499 1501 1502 1502 1503 1503 1503 1503 1502 1501 1501 1500 1499 1499 1498 1498 1497 1497 1496 1495 1493 1492 1490 1489 1488 1487 1485 1484 1482
1468 1473 1474 1476 1477 1478 1479 1481 1484 1486 1490 1493 1495 1498 1500 1502 1503 1504 1505 1505 1505 1505 1505 1504 1503 1503 1502 1501 1500 1500 1499 1498 1497 1496 1494 1493 1491 1489 1486 1485 1482 1480 1478 1476
1476 1476 1476 1477 1478 1479 1481 1484 1487 1490 1493 1495 1498 1501 1502 1504 1505 1506 1506 1507 1506 1506 1506 1506 1505 1504 1503 1502 1501 1500 1499 1498 1497 1495 1494 1492 1489 1486 1484 1481 1478 1475 1472 1470
1476 1477 1477 1479 1480 1482 1484 1487 1490 1493 1496 1498 1501 1503 1504 1506 1507 1507 1508 1508 1508 1507 1507 1506 1506 1505 1503 1502 1501 1500 1499 1497 1495 1494 1491 1489 1486 1483 1480 1477 1474 1471 1468 1465
1478 1478 1480 1481 1483 1485 1488 1491 1493 1496 1499 1502 1503 1505 1506 1507 1508 1508 1508 1508 1508 1508 1507 1507 1506 1505 1503 1502 1501 1499 1498 1496 1493 1491 1488 1486 1483 1479 1476 1473 1470 1466 1463 1460
1481 1482 1483 1485 1488 1490 1492 1495 1497 1500 1502 1504 1505 1506 1507 1508 1509 1509 1509 1509 1508 1507 1507 1506 1505 1504 1502 1500 1499 1497 1495 1492 1489 1487 1485 1482 1479 1475 1472 1469 1465 1461 1458 1454
1485 1486 1488 1491 1493 1495 1497 1499 1501 1503 1505 1506 1507 1508 1509 1509 1509 1509 1509 1508 1507 1507 1506 1505 1503 1502 1500 1498 1496 1495 1493 1490 1486 1484 1481 1478 1474 1471 1467 1464 1460 1456 1453 1449
1490 1492 1494 1495 1497 1499 1501 1503 1504 1505 1506 1507 1508 1509 1509 1509 1509 1509 1508 1508 1507 1505 1504 1503 1501 1499 1497 1495 1493 1491 1489 1486 1483 1480 1477 1473 1470 1466 1463 1459 1455 1452 1448 1444
1495 1496 1498 1499 1501 1502 1504 1505 1506 1507 1507 1508 1508 1508 1508 1509 1509 1508 1507 1506 1505 1504 1502 1500 1498 1496 1495 1492 1489 1487 1485 1482 1479 1476 1473 1469 1466 1462 1459 1455 1451 1447 1443 1439
1499 1500 1501 1503 1504 1505 1506 1507 1507 1508 1508 1508 1508 1508 1508 1507 1507 1506 1505 1504 1502 1501 1499 1497 1495 1494 1491 1489 1486 1484 1481 1478 1475 1472 1469 1465 1462 1458 1455 1451 1447 1443 1439 1435
1502 1503 1504 1505 1506 1507 1507 1507 1508 1508 1508 1507 1507 1507 1506 1506 1505 1503 1502 1501 1499 1497 1496 1494 1492 1490 1488 1484 1482 1481 1478 1475 1471 1468 1465 1462 1458 1455 1451 1447 1443 1439 1435 1431
1504 1505 1506 1506 1507 1507 1507 1507 1507 1507 1506 1506 1505 1505 1504 1503 1502 1501 1499 1499 1497 1494 1493 1492 1489 1486 1483 1481 1480 1478 1475 1471 1468 1465 1462 1459 1455 1452 1448 1444 1440 1436 1432 1428
1506 1506 1507 1507 1507 1507 1506 1506 1506 1505 1505 1504 1503 1503 1502 1501 1500 1499 1498 1496 1494 1492 1490 1488 1485 1482 1480 1479 1477 1475 1472 1469 1466 1463 1460 1456 1453 1450 1446 1442 1438 1434 1430 1426
1506 1506 1506 1506 1505 1505 1505 1504 1504 1503 1502 1502 1501 1500 1499 1498 1497 1496 1494 1492 1490 1489 1487 1484 1482 1480 1478 1478 1475 1472 1470 1467 1464 1461 1458 1455 1452 1448 1445 1441 1437 1433 1429 1424
1506 1505 1505 1504 1504 1503 1502 1502 1501 1500 1500 1499 1498 1497 1497 1496 1495 1493 1491 1490 1488 1487 1485 1482 1480 1479 1478 1476 1474 1471 1469 1465 1463 1460 1457 1454 1451 1448 1444 1440 1436 1432 1428 1423
1505 1504 1503 1503 1502 1501 1500 1500 1499 1498 1497 1496 1495 1495 1494 1492 1491 1490 1489 1488 1486 1484 1483 1482 1480 1478 1477 1475 1473 1470 1468 1465 1463 1460 1457 1454 1451 1448 1444 1440 1436 1432 1428 1423
1503 1502 1501 1500 1499 1499 1498 1497 1496 1496 1495 1494 1493 1492 1491 1490 1489 1488 1487 1486 1485 1483 1482 1481 1479 1478 1476 1475 1472 1470 1468 1466 1463 1461 1458 1455 1452 1448 1445 1441 1437 1433 1428 1424